Dutch Harbor, AK

12:18 AM AKST on February 18, 2018 (GMT -0900)
Unalaska

Weather History for PADU - December, 2013

Change the Weather History Date:

Friday, December 27, 2013

  Actual Average Record
Temperature  
Mean Temperature 42 °F -  
Max Temperature 46 °F 41 °F 53 °F (1996)
Min Temperature 39 °F 31 °F 5 °F (1989)
Degree Days  
Heating Degree Days 22    
Moisture  
Dew Point 36 °F    
Average Humidity 83    
Maximum Humidity 93    
Minimum Humidity 68    
Precipitation  
Precipitation 0.42 in - - ()
Sea Level Pressure  
Sea Level Pressure 29.28 in    
Wind  
Wind Speed 8 mph (SSE)    
Max Wind Speed 15 mph    
Max Gust Speed 26 mph    
Visibility 8 miles    
Events Rain    
Averages and records for this station are not official NWS values.
T = Trace of Precipitation, MM = Missing Value Source: NWS Daily Summary

Daily Weather History Graph

Daily Weather History Graph

Search for Another Location

Airport or City:

Trip Planner

Search our weather history database for the weather conditions in past years. The results will help you decide how hot, cold, wet, or windy it might be!

Date:

Astronomy

Dec. 27, 2013 Rise Set
Actual Time 10:24 AM AKST 5:50 PM AKST
Civil Twilight 9:41 AM AKST 6:34 PM AKST
Nautical Twilight 8:55 AM AKST 7:20 PM AKST
Astronomical Twilight 8:11 AM AKST 8:03 PM AKST
Moon 4:40 AM AKST (12/27) 2:35 PM AKST (12/27)
Length of Visible Light 8h 53m
Length of Day
7h 25m
Waning Crescent, 27% of the Moon is Illuminated
Dec 27
Waning Crescent
Jan 1
New
Jan 7
First Quarter
Jan 15
Full
Jan 23
Last Quarter

Hourly Weather History & Observations

Time (AKST) Temp. Windchill Dew Point Humidity Pressure Visibility Wind Dir Wind Speed Gust Speed Precip Events Conditions
12:56 AM 42.1 °F 34.9 °F 37.0 °F 82% 29.20 in 7.0 mi ESE 13.8 mph 21.9 mph 0.14 in Rain Rain
1:56 AM 42.1 °F 34.5 °F 37.0 °F 82% 29.19 in 7.0 mi ESE 15.0 mph 26.5 mph 0.13 in Rain Rain
2:56 AM 41.0 °F 33.1 °F 36.0 °F 82% 29.18 in 10.0 mi East 15.0 mph 19.6 mph 0.08 in Rain Light Rain
3:56 AM 41.0 °F 33.1 °F 37.0 °F 86% 29.18 in 10.0 mi ENE 15.0 mph 20.7 mph 0.02 in Rain Light Rain
4:56 AM 41.0 °F - 37.0 °F 86% 29.18 in 8.0 mi Calm Calm - 0.02 in Rain Light Rain
5:15 AM 39.2 °F 37.0 °F 37.4 °F 93% 29.16 in 4.0 mi NW 3.5 mph - 0.01 in Rain Light Rain
5:52 AM 39.2 °F 35.0 °F 37.4 °F 93% 29.17 in 2.5 mi NW 5.8 mph - 0.02 in Rain Light Rain
5:56 AM 39.9 °F 36.7 °F 37.0 °F 89% 29.18 in 3.0 mi NNW 4.6 mph - 0.02 in Rain Light Rain
6:13 AM 39.2 °F 34.2 °F 37.4 °F 93% 29.17 in 5.0 mi NNW 6.9 mph - 0.01 in Rain Light Rain
6:56 AM 39.9 °F 36.7 °F 37.0 °F 89% 29.19 in 5.0 mi NW 4.6 mph - 0.01 in Rain Light Rain
7:08 AM 39.2 °F 35.0 °F 37.4 °F 93% 29.18 in 5.0 mi West 5.8 mph - 0.00 in Rain Light Rain
7:12 AM 39.2 °F 35.9 °F 37.4 °F 93% 29.18 in 5.0 mi West 4.6 mph - 0.00 in Rain Light Rain
7:56 AM 39.9 °F 36.7 °F 37.0 °F 89% 29.20 in 6.0 mi SE 4.6 mph - 0.00 in Rain Light Rain
7:59 AM 39.2 °F 37.0 °F 37.4 °F 93% 29.18 in 6.0 mi ESE 3.5 mph - 0.00 in Rain Light Rain
8:00 AM 39.2 °F 37.0 °F 37.4 °F 93% 29.18 in 10.0 mi SE 3.5 mph - 0.00 in   Overcast
8:18 AM 39.2 °F 37.0 °F 37.4 °F 93% 29.19 in 10.0 mi SE 3.5 mph - 0.00 in   Mostly Cloudy
8:29 AM 39.2 °F - 37.4 °F 93% 29.19 in 10.0 mi Calm Calm - 0.00 in   Scattered Clouds
8:56 AM 39.0 °F - 37.0 °F 93% 29.21 in 10.0 mi Calm Calm - 0.00 in   Scattered Clouds
9:56 AM 39.9 °F 37.8 °F 36.0 °F 86% 29.24 in 10.0 mi SE 3.5 mph - N/A   Clear
10:56 AM 42.1 °F - 35.1 °F 76% 29.27 in 10.0 mi Calm Calm - N/A   Scattered Clouds
11:56 AM 42.1 °F 40.2 °F 35.1 °F 76% 29.29 in 10.0 mi South 3.5 mph - N/A   Scattered Clouds
12:56 PM 44.1 °F 42.5 °F 35.1 °F 71% 29.31 in 10.0 mi South 3.5 mph - N/A   Scattered Clouds
1:19 PM 44.6 °F 43.1 °F 35.6 °F 71% 29.30 in 10.0 mi South 3.5 mph - N/A   Scattered Clouds
1:56 PM 45.0 °F 42.6 °F 36.0 °F 71% 29.33 in 10.0 mi SSW 4.6 mph - N/A   Scattered Clouds
2:01 PM 44.6 °F 40.2 °F 35.6 °F 71% 29.31 in 10.0 mi SSW 8.1 mph - N/A   Scattered Clouds
2:56 PM 46.0 °F 43.1 °F 36.0 °F 68% 29.33 in 10.0 mi SSE 5.8 mph - N/A   Scattered Clouds
3:56 PM 45.0 °F 41.8 °F 37.0 °F 74% 29.35 in 10.0 mi SSE 5.8 mph - N/A   Scattered Clouds
4:56 PM 44.1 °F 40.8 °F 36.0 °F 73% 29.37 in 10.0 mi SE 5.8 mph - N/A   Scattered Clouds
5:56 PM 43.0 °F 39.5 °F 35.1 °F 74% 29.40 in 10.0 mi SE 5.8 mph - N/A   Scattered Clouds
6:56 PM 41.0 °F 35.2 °F 34.0 °F 76% 29.42 in 10.0 mi SSE 9.2 mph - N/A   Clear
7:56 PM 41.0 °F 37.1 °F 35.1 °F 79% 29.44 in 10.0 mi South 5.8 mph - N/A   Clear
8:56 PM 41.0 °F 38.0 °F 36.0 °F 82% 29.46 in 10.0 mi South 4.6 mph - N/A   Overcast
9:56 PM 42.1 °F 37.7 °F 36.0 °F 79% 29.47 in 10.0 mi SSE 6.9 mph - N/A   Overcast
10:56 PM 42.1 °F 37.1 °F 37.0 °F 82% 29.49 in 10.0 mi SSE 8.1 mph - N/A   Overcast
11:22 PM 42.8 °F 38.6 °F 37.4 °F 81% 29.48 in 10.0 mi SSE 6.9 mph - N/A   Scattered Clouds
11:56 PM 42.1 °F 38.4 °F 37.0 °F 82% 29.51 in 10.0 mi SSE 5.8 mph - N/A   Scattered Clouds